Location: Москва
(55.7504°N, 37.6175°E)
Time: 07:49:56
(UTC+03:00)

Nauka - Pass Details

Date: 25 September 2021
Orbit: 417 x 423 km, 51.6° (Epoch: 19 October)

Event Time Altitude Azimuth Distance (km) Brightness Sun altitude
Rises 21:11:10 0° 271° (W) 2,367 ? -23.4°
Reaches altitude 10° 21:13:24 10° 260° (W) 1,503 ? -23.6°
Enters shadow 21:14:48 20° 244° (WSW) 1,037 ? -23.8°
